Find Starlink 1878

NORAD ID: 47163 Int'l Des: 2020-088 Owner: SPXS Country: US Constellation: starlink decayed
LEOCIRCULAR
Vis

Historical Track — Jan 23, 2025

正在加载3D地球...

关于 Starlink 1878

正在加载描述...

高度历史

Loading altitude history...

两行轨道根数

1 47163U 20088AT 25023.24754954 .12603424 12334-4 69620-3 0 9996
2 47163 53.0194 321.5611 0005271 187.4196 328.6658 16.42157572230536
Epoch: Jan 23, 2025 • Age: 11243 hours

当前状态

Position data unavailable
发射日期 Nov 25, 2020
运行时间 5.4 years
衰减日期 Jan 23, 2025
类型 internet

技术详情

分类 Payload
质量 260.00 kg
干质量 248.00 kg
总质量 260.00 kg
长度 0.20 m
直径 2.80 m
跨度 9.00 m
形状 Box + pan
制造商 SPXS
平台类型 Starlink
阶段状态 Unknown Transfer Status
所有者/国家 SPXS/US

Most Searched